owner,sensor,date,latitude,longitude,vertical_datum,sea_water_temperature,qcFlag
BP,ioos:station:wmo:42865:1,2021-02-01T00:03:00Z,28.4662,-88.2943,16.5,21.6,11111222
BP,ioos:station:wmo:42865:1,2021-02-01T00:13:00Z,28.4662,-88.2943,16.4,21.6,11111222
BP,ioos:station:wmo:42865:1,2021-02-01T00:23:00Z,28.4662,-88.2943,16.2,21.6,11111222
BP,ioos:station:wmo:42865:1,2021-02-01T00:33:00Z,28.4662,-88.2943,16.1,21.6,11111222
BP,ioos:station:wmo:42865:1,2021-02-01T00:43:00Z,28.4662,-88.2943,16.1,21.6,11111222
BP,ioos:station:wmo:42865:1,2021-02-01T00:53:00Z,28.4662,-88.2943,16.1,21.6,11111222
BP,ioos:station:wmo:42865:1,2021-02-01T01:03:00Z,28.4662,-88.2943,16.1,21.6,11111222
BP,ioos:station:wmo:42865:1,2021-02-01T01:13:00Z,28.4662,-88.2943,16.0,21.6,11111222
BP,ioos:station:wmo:42865:1,2021-02-01T01:23:00Z,28.4662,-88.2943,16.1,21.6,11111222
BP,ioos:station:wmo:42865:1,2021-02-01T01:33:00Z,28.4662,-88.2943,16.2,21.6,11111222
BP,ioos:station:wmo:42865:1,2021-02-01T01:43:00Z,28.4662,-88.2943,16.1,21.6,11111222
BP,ioos:station:wmo:42865:1,2021-02-01T01:53:00Z,28.4662,-88.2943,16.0,21.5,11111222
BP,ioos:station:wmo:42865:1,2021-02-01T02:03:00Z,28.4662,-88.2943,16.3,21.5,11111222
BP,ioos:station:wmo:42865:1,2021-02-01T02:13:00Z,28.4662,-88.2943,16.2,21.5,11111222
BP,ioos:station:wmo:42865:1,2021-02-01T02:23:00Z,28.4662,-88.2943,16.1,21.5,11111222
BP,ioos:station:wmo:42865:1,2021-02-01T02:33:00Z,28.4662,-88.2943,16.0,21.5,11111222
BP,ioos:station:wmo:42865:1,2021-02-01T02:43:00Z,28.4662,-88.2943,15.9,21.5,11111222
BP,ioos:station:wmo:42865:1,2021-02-01T02:53:00Z,28.4662,-88.2943,16.1,21.5,11111222
BP,ioos:station:wmo:42865:1,2021-02-01T03:03:00Z,28.4662,-88.2943,15.9,21.5,11111222
BP,ioos:station:wmo:42865:1,2021-02-01T03:13:00Z,28.4662,-88.2943,16.0,21.5,11111222
BP,ioos:station:wmo:42865:1,2021-02-01T03:23:00Z,28.4662,-88.2943,15.9,21.5,11111222
BP,ioos:station:wmo:42865:1,2021-02-01T03:33:00Z,28.4662,-88.2943,15.8,21.5,11111222
BP,ioos:station:wmo:42865:1,2021-02-01T03:43:00Z,28.4662,-88.2943,15.8,21.5,11111222
BP,ioos:station:wmo:42865:1,2021-02-01T03:53:00Z,28.4662,-88.2943,15.4,21.5,11111222
BP,ioos:station:wmo:42865:1,2021-02-01T04:03:00Z,28.4662,-88.2943,15.9,21.5,11111222
BP,ioos:station:wmo:42865:1,2021-02-01T04:13:00Z,28.4662,-88.2943,16.0,21.5,11111222
BP,ioos:station:wmo:42865:1,2021-02-01T04:23:00Z,28.4662,-88.2943,16.0,21.5,11111222
BP,ioos:station:wmo:42865:1,2021-02-01T04:33:00Z,28.4662,-88.2943,15.7,21.5,11111222
BP,ioos:station:wmo:42865:1,2021-02-01T04:43:00Z,28.4662,-88.2943,16.1,21.4,11111222
BP,ioos:station:wmo:42865:1,2021-02-01T04:53:00Z,28.4662,-88.2943,15.8,21.4,11111222
BP,ioos:station:wmo:42865:1,2021-02-01T05:03:00Z,28.4662,-88.2943,16.0,21.4,11111222
BP,ioos:station:wmo:42865:1,2021-02-01T05:13:00Z,28.4662,-88.2943,16.0,21.4,11111222
BP,ioos:station:wmo:42865:1,2021-02-01T05:23:00Z,28.4662,-88.2943,16.0,21.4,11111222
BP,ioos:station:wmo:42865:1,2021-02-01T05:33:00Z,28.4662,-88.2943,16.1,21.4,11111222
BP,ioos:station:wmo:42865:1,2021-02-01T05:43:00Z,28.4662,-88.2943,16.1,21.4,11111222
BP,ioos:station:wmo:42865:1,2021-02-01T05:53:00Z,28.4662,-88.2943,16.1,21.4,11111222
BP,ioos:station:wmo:42865:1,2021-02-01T06:03:00Z,28.4662,-88.2943,16.1,21.4,11111222
BP,ioos:station:wmo:42865:1,2021-02-01T06:13:00Z,28.4662,-88.2943,15.9,21.4,11111222
BP,ioos:station:wmo:42865:1,2021-02-01T06:23:00Z,28.4662,-88.2943,15.9,21.4,11111222
BP,ioos:station:wmo:42865:1,2021-02-01T06:33:00Z,28.4662,-88.2943,15.8,21.4,11111222
BP,ioos:station:wmo:42865:1,2021-02-01T06:43:00Z,28.4662,-88.2943,16.0,21.4,11111222
BP,ioos:station:wmo:42865:1,2021-02-01T06:53:00Z,28.4662,-88.2943,15.9,21.4,11111222
BP,ioos:station:wmo:42865:1,2021-02-01T07:03:00Z,28.4662,-88.2943,16.0,21.4,11111222
BP,ioos:station:wmo:42865:1,2021-02-01T07:13:00Z,28.4662,-88.2943,16.0,21.4,11111222
BP,ioos:station:wmo:42865:1,2021-02-01T07:23:00Z,28.4662,-88.2943,16.0,21.4,11111222
BP,ioos:station:wmo:42865:1,2021-02-01T07:33:00Z,28.4662,-88.2943,16.0,21.4,11111222
BP,ioos:station:wmo:42865:1,2021-02-01T07:43:00Z,28.4662,-88.2943,16.1,21.4,11111222
BP,ioos:station:wmo:42865:1,2021-02-01T07:54:00Z,28.4662,-88.2943,16.1,21.4,11111222
BP,ioos:station:wmo:42865:1,2021-02-01T08:04:00Z,28.4662,-88.2943,16.1,21.5,11111222
BP,ioos:station:wmo:42865:1,2021-02-01T08:14:00Z,28.4662,-88.2943,16.1,21.5,11111222
BP,ioos:station:wmo:42865:1,2021-02-01T08:24:00Z,28.4662,-88.2943,16.1,21.5,11111222
BP,ioos:station:wmo:42865:1,2021-02-01T08:34:00Z,28.4662,-88.2943,16.2,21.5,11111222
BP,ioos:station:wmo:42865:1,2021-02-01T08:44:00Z,28.4662,-88.2943,16.1,21.5,11111222
BP,ioos:station:wmo:42865:1,2021-02-01T08:54:00Z,28.4662,-88.2943,16.1,21.5,11111222
BP,ioos:station:wmo:42865:1,2021-02-01T09:04:00Z,28.4662,-88.2943,16.1,21.5,11111222
BP,ioos:station:wmo:42865:1,2021-02-01T09:14:00Z,28.4662,-88.2943,16.1,21.5,11111222
BP,ioos:station:wmo:42865:1,2021-02-01T09:24:00Z,28.4662,-88.2943,16.1,21.5,11111222
BP,ioos:station:wmo:42865:1,2021-02-01T09:34:00Z,28.4662,-88.2943,16.1,21.5,11111222
BP,ioos:station:wmo:42865:1,2021-02-01T09:44:00Z,28.4662,-88.2943,16.1,21.5,11111222
BP,ioos:station:wmo:42865:1,2021-02-01T09:54:00Z,28.4662,-88.2943,16.1,21.5,11111222
BP,ioos:station:wmo:42865:1,2021-02-01T10:04:00Z,28.4662,-88.2943,16.1,21.5,11111222
BP,ioos:station:wmo:42865:1,2021-02-01T10:14:00Z,28.4662,-88.2943,16.1,21.5,11111222
BP,ioos:station:wmo:42865:1,2021-02-01T10:24:00Z,28.4662,-88.2943,16.2,21.5,11111222
BP,ioos:station:wmo:42865:1,2021-02-01T10:34:00Z,28.4662,-88.2943,16.2,21.5,11111222
BP,ioos:station:wmo:42865:1,2021-02-01T10:44:00Z,28.4662,-88.2943,16.1,21.5,11111222
BP,ioos:station:wmo:42865:1,2021-02-01T10:54:00Z,28.4662,-88.2943,16.2,21.5,11111222
BP,ioos:station:wmo:42865:1,2021-02-01T11:04:00Z,28.4662,-88.2943,16.2,21.5,11111222
BP,ioos:station:wmo:42865:1,2021-02-01T11:14:00Z,28.4662,-88.2943,16.2,21.5,11111222
BP,ioos:station:wmo:42865:1,2021-02-01T11:24:00Z,28.4662,-88.2943,16.2,21.5,11111222
BP,ioos:station:wmo:42865:1,2021-02-01T11:34:00Z,28.4662,-88.2943,16.2,21.5,11111222
BP,ioos:station:wmo:42865:1,2021-02-01T11:44:00Z,28.4662,-88.2943,16.2,21.5,11111222
BP,ioos:station:wmo:42865:1,2021-02-01T11:54:00Z,28.4662,-88.2943,16.1,21.5,11111222
BP,ioos:station:wmo:42865:1,2021-02-01T12:04:00Z,28.4662,-88.2943,16.2,21.5,11111222
BP,ioos:station:wmo:42865:1,2021-02-01T12:14:00Z,28.4662,-88.2943,16.2,21.5,11111222
BP,ioos:station:wmo:42865:1,2021-02-01T12:24:00Z,28.4662,-88.2943,16.1,21.5,11111222
BP,ioos:station:wmo:42865:1,2021-02-01T12:34:00Z,28.4662,-88.2943,16.2,21.5,11111222
BP,ioos:station:wmo:42865:1,2021-02-01T12:44:00Z,28.4662,-88.2943,16.2,21.5,11111222
BP,ioos:station:wmo:42865:1,2021-02-01T12:54:00Z,28.4662,-88.2943,16.2,21.5,11111222
BP,ioos:station:wmo:42865:1,2021-02-01T13:04:00Z,28.4662,-88.2943,16.2,21.5,11111222
BP,ioos:station:wmo:42865:1,2021-02-01T13:14:00Z,28.4662,-88.2943,16.2,21.5,11111222
BP,ioos:station:wmo:42865:1,2021-02-01T13:24:00Z,28.4662,-88.2943,16.2,21.5,11111222
BP,ioos:station:wmo:42865:1,2021-02-01T13:34:00Z,28.4662,-88.2943,16.3,21.5,11111222
BP,ioos:station:wmo:42865:1,2021-02-01T13:44:00Z,28.4662,-88.2943,16.1,21.5,11111222
BP,ioos:station:wmo:42865:1,2021-02-01T13:54:00Z,28.4662,-88.2943,16.2,21.5,11111222
BP,ioos:station:wmo:42865:1,2021-02-01T14:04:00Z,28.4662,-88.2943,16.3,21.5,11111222
BP,ioos:station:wmo:42865:1,2021-02-01T14:14:00Z,28.4662,-88.2943,16.2,21.5,11111222
BP,ioos:station:wmo:42865:1,2021-02-01T14:24:00Z,28.4662,-88.2943,16.3,21.5,11111222
BP,ioos:station:wmo:42865:1,2021-02-01T14:34:00Z,28.4662,-88.2943,16.2,21.5,11111222
BP,ioos:station:wmo:42865:1,2021-02-01T14:44:00Z,28.4662,-88.2943,16.2,21.5,11111222
BP,ioos:station:wmo:42865:1,2021-02-01T14:54:00Z,28.4662,-88.2943,16.3,21.5,11111222
BP,ioos:station:wmo:42865:1,2021-02-01T15:04:00Z,28.4662,-88.2943,16.3,21.5,11111222
BP,ioos:station:wmo:42865:1,2021-02-01T15:14:00Z,28.4662,-88.2943,16.3,21.5,11111222
BP,ioos:station:wmo:42865:1,2021-02-01T15:24:00Z,28.4662,-88.2943,16.3,21.4,11111222
BP,ioos:station:wmo:42865:1,2021-02-01T15:34:00Z,28.4662,-88.2943,16.3,21.4,11111222
BP,ioos:station:wmo:42865:1,2021-02-01T15:44:00Z,28.4662,-88.2943,16.2,21.4,11111222
BP,ioos:station:wmo:42865:1,2021-02-01T15:54:00Z,28.4662,-88.2943,16.3,21.4,11111222
BP,ioos:station:wmo:42865:1,2021-02-01T16:04:00Z,28.4662,-88.2943,16.3,21.4,11111222
BP,ioos:station:wmo:42865:1,2021-02-01T16:14:00Z,28.4662,-88.2943,16.3,21.4,11111222
BP,ioos:station:wmo:42865:1,2021-02-01T16:24:00Z,28.4662,-88.2943,16.2,21.4,11111222
BP,ioos:station:wmo:42865:1,2021-02-01T16:34:00Z,28.4662,-88.2943,16.3,21.4,11111222
BP,ioos:station:wmo:42865:1,2021-02-01T16:44:00Z,28.4662,-88.2943,16.3,21.4,11111222
BP,ioos:station:wmo:42865:1,2021-02-01T16:54:00Z,28.4662,-88.2943,16.3,21.4,11111222
BP,ioos:station:wmo:42865:1,2021-02-01T17:04:00Z,28.4662,-88.2943,16.2,21.4,11111222
BP,ioos:station:wmo:42865:1,2021-02-01T17:14:00Z,28.4662,-88.2943,16.2,21.4,11111222
BP,ioos:station:wmo:42865:1,2021-02-01T17:24:00Z,28.4662,-88.2943,16.3,21.4,11111222
BP,ioos:station:wmo:42865:1,2021-02-01T17:34:00Z,28.4662,-88.2943,16.3,21.4,11111222
BP,ioos:station:wmo:42865:1,2021-02-01T17:44:00Z,28.4662,-88.2943,16.3,21.4,11111222
BP,ioos:station:wmo:42865:1,2021-02-01T17:54:00Z,28.4662,-88.2943,16.3,21.4,11111222
BP,ioos:station:wmo:42865:1,2021-02-01T18:04:00Z,28.4662,-88.2943,16.3,21.4,11111222
BP,ioos:station:wmo:42865:1,2021-02-01T18:14:00Z,28.4662,-88.2943,16.2,21.4,11111222
BP,ioos:station:wmo:42865:1,2021-02-01T18:24:00Z,28.4662,-88.2943,16.2,21.4,11111222
BP,ioos:station:wmo:42865:1,2021-02-01T18:34:00Z,28.4662,-88.2943,16.2,21.4,11111222
BP,ioos:station:wmo:42865:1,2021-02-01T18:44:00Z,28.4662,-88.2943,16.1,21.4,11111222
BP,ioos:station:wmo:42865:1,2021-02-01T18:54:00Z,28.4662,-88.2943,16.2,21.4,11111222
BP,ioos:station:wmo:42865:1,2021-02-01T19:04:00Z,28.4662,-88.2943,16.3,21.4,11111222
BP,ioos:station:wmo:42865:1,2021-02-01T19:14:00Z,28.4662,-88.2943,16.3,21.4,11111222
BP,ioos:station:wmo:42865:1,2021-02-01T19:24:00Z,28.4662,-88.2943,16.3,21.4,11111222
BP,ioos:station:wmo:42865:1,2021-02-01T19:34:00Z,28.4662,-88.2943,16.4,21.4,11111222
BP,ioos:station:wmo:42865:1,2021-02-01T19:44:00Z,28.4662,-88.2943,16.4,21.4,11111222
BP,ioos:station:wmo:42865:1,2021-02-01T19:54:00Z,28.4662,-88.2943,16.4,21.4,11111222
BP,ioos:station:wmo:42865:1,2021-02-01T20:04:00Z,28.4662,-88.2943,16.3,21.4,11111222
BP,ioos:station:wmo:42865:1,2021-02-01T20:14:00Z,28.4662,-88.2943,16.3,21.4,11111222
BP,ioos:station:wmo:42865:1,2021-02-01T20:24:00Z,28.4662,-88.2943,16.3,21.4,11111222
BP,ioos:station:wmo:42865:1,2021-02-01T20:34:00Z,28.4662,-88.2943,16.3,21.4,11111222
BP,ioos:station:wmo:42865:1,2021-02-01T20:44:00Z,28.4662,-88.2943,16.3,21.4,11111222
BP,ioos:station:wmo:42865:1,2021-02-01T20:54:00Z,28.4662,-88.2943,16.3,21.4,11111222
BP,ioos:station:wmo:42865:1,2021-02-01T21:04:00Z,28.4662,-88.2943,16.5,21.4,11111222
BP,ioos:station:wmo:42865:1,2021-02-01T21:14:00Z,28.4662,-88.2943,16.5,21.4,11111222
BP,ioos:station:wmo:42865:1,2021-02-01T21:24:00Z,28.4662,-88.2943,16.4,21.4,11111222
BP,ioos:station:wmo:42865:1,2021-02-01T21:34:00Z,28.4662,-88.2943,16.3,21.4,11111222
BP,ioos:station:wmo:42865:1,2021-02-01T21:44:00Z,28.4662,-88.2943,16.4,21.4,11111222
BP,ioos:station:wmo:42865:1,2021-02-01T21:54:00Z,28.4662,-88.2943,16.4,21.4,11111222
BP,ioos:station:wmo:42865:1,2021-02-01T22:04:00Z,28.4662,-88.2943,16.4,21.4,11111222
BP,ioos:station:wmo:42865:1,2021-02-01T22:14:00Z,28.4662,-88.2943,16.4,21.4,11111222
BP,ioos:station:wmo:42865:1,2021-02-01T22:24:00Z,28.4662,-88.2943,16.4,21.4,11111222
BP,ioos:station:wmo:42865:1,2021-02-01T22:34:00Z,28.4662,-88.2943,16.3,21.4,11111222
BP,ioos:station:wmo:42865:1,2021-02-01T22:45:00Z,28.4662,-88.2943,16.3,21.4,11111222
BP,ioos:station:wmo:42865:1,2021-02-01T22:55:00Z,28.4662,-88.2943,16.3,21.4,11111222
BP,ioos:station:wmo:42865:1,2021-02-01T23:05:00Z,28.4662,-88.2943,16.3,21.4,11111222
BP,ioos:station:wmo:42865:1,2021-02-01T23:15:00Z,28.4662,-88.2943,16.5,21.4,11111222
BP,ioos:station:wmo:42865:1,2021-02-01T23:25:00Z,28.4662,-88.2943,16.4,21.4,11111222
BP,ioos:station:wmo:42865:1,2021-02-01T23:35:00Z,28.4662,-88.2943,16.4,21.4,11111222
BP,ioos:station:wmo:42865:1,2021-02-01T23:45:00Z,28.4662,-88.2943,16.3,21.4,11111222
BP,ioos:station:wmo:42865:1,2021-02-01T23:55:00Z,28.4662,-88.2943,16.3,21.4,11111222
BP,ioos:station:wmo:42865:1,2021-02-02T00:05:00Z,28.4662,-88.2943,16.3,21.4,11111222
BP,ioos:station:wmo:42865:1,2021-02-02T00:15:00Z,28.4662,-88.2943,16.3,21.4,11111222
BP,ioos:station:wmo:42865:1,2021-02-02T00:25:00Z,28.4662,-88.2943,16.3,21.4,11111222
BP,ioos:station:wmo:42865:1,2021-02-02T00:35:00Z,28.4662,-88.2943,16.3,21.3,11111222
BP,ioos:station:wmo:42865:1,2021-02-02T00:45:00Z,28.4662,-88.2943,16.3,21.3,11111222
BP,ioos:station:wmo:42865:1,2021-02-02T00:55:00Z,28.4662,-88.2943,16.4,21.3,11111222
BP,ioos:station:wmo:42865:1,2021-02-02T01:05:00Z,28.4662,-88.2943,16.4,21.3,11111222
BP,ioos:station:wmo:42865:1,2021-02-02T01:15:00Z,28.4662,-88.2943,16.4,21.3,11111222
BP,ioos:station:wmo:42865:1,2021-02-02T01:25:00Z,28.4662,-88.2943,16.4,21.3,11111222
BP,ioos:station:wmo:42865:1,2021-02-02T01:35:00Z,28.4662,-88.2943,16.4,21.3,11111222
BP,ioos:station:wmo:42865:1,2021-02-02T01:45:00Z,28.4662,-88.2943,16.4,21.3,11111222
BP,ioos:station:wmo:42865:1,2021-02-02T01:55:00Z,28.4662,-88.2943,16.4,21.3,11111222
BP,ioos:station:wmo:42865:1,2021-02-02T02:05:00Z,28.4662,-88.2943,16.4,21.3,11111222
BP,ioos:station:wmo:42865:1,2021-02-02T02:15:00Z,28.4662,-88.2943,16.4,21.3,11111222
BP,ioos:station:wmo:42865:1,2021-02-02T02:25:00Z,28.4662,-88.2943,16.4,21.3,11111222
BP,ioos:station:wmo:42865:1,2021-02-02T02:35:00Z,28.4662,-88.2943,16.4,21.3,11111222
BP,ioos:station:wmo:42865:1,2021-02-02T02:45:00Z,28.4662,-88.2943,16.4,21.3,11111222
BP,ioos:station:wmo:42865:1,2021-02-02T02:55:00Z,28.4662,-88.2943,16.5,21.3,11111222
BP,ioos:station:wmo:42865:1,2021-02-02T03:05:00Z,28.4662,-88.2943,16.4,21.3,11111222
BP,ioos:station:wmo:42865:1,2021-02-02T03:15:00Z,28.4662,-88.2943,16.4,21.3,11111222
BP,ioos:station:wmo:42865:1,2021-02-02T03:25:00Z,28.4662,-88.2943,16.4,21.3,11111222
BP,ioos:station:wmo:42865:1,2021-02-02T03:35:00Z,28.4662,-88.2943,16.4,21.3,11111222
BP,ioos:station:wmo:42865:1,2021-02-02T03:45:00Z,28.4662,-88.2943,16.4,21.3,11111222
BP,ioos:station:wmo:42865:1,2021-02-02T03:55:00Z,28.4662,-88.2943,16.4,21.3,11111222
BP,ioos:station:wmo:42865:1,2021-02-02T04:05:00Z,28.4662,-88.2943,16.4,21.3,11111222
BP,ioos:station:wmo:42865:1,2021-02-02T04:15:00Z,28.4662,-88.2943,16.3,21.3,11111222
BP,ioos:station:wmo:42865:1,2021-02-02T04:25:00Z,28.4662,-88.2943,16.2,21.3,11111222
BP,ioos:station:wmo:42865:1,2021-02-02T04:35:00Z,28.4662,-88.2943,16.3,21.3,11111222
BP,ioos:station:wmo:42865:1,2021-02-02T04:45:00Z,28.4662,-88.2943,16.5,21.3,11111222
BP,ioos:station:wmo:42865:1,2021-02-02T04:55:00Z,28.4662,-88.2943,16.3,21.3,11111222
BP,ioos:station:wmo:42865:1,2021-02-02T05:05:00Z,28.4662,-88.2943,16.4,21.3,11111222
BP,ioos:station:wmo:42865:1,2021-02-02T05:15:00Z,28.4662,-88.2943,16.5,21.3,11111222
BP,ioos:station:wmo:42865:1,2021-02-02T05:25:00Z,28.4662,-88.2943,16.3,21.3,11111222
BP,ioos:station:wmo:42865:1,2021-02-02T05:35:00Z,28.4662,-88.2943,16.4,21.3,11111222
BP,ioos:station:wmo:42865:1,2021-02-02T05:45:00Z,28.4662,-88.2943,16.3,21.3,11111222
BP,ioos:station:wmo:42865:1,2021-02-02T05:55:00Z,28.4662,-88.2943,16.3,21.3,11111222
BP,ioos:station:wmo:42865:1,2021-02-02T06:05:00Z,28.4662,-88.2943,16.3,21.3,11111222
BP,ioos:station:wmo:42865:1,2021-02-02T06:15:00Z,28.4662,-88.2943,16.3,21.3,11111222
BP,ioos:station:wmo:42865:1,2021-02-02T06:25:00Z,28.4662,-88.2943,16.3,21.3,11111222
BP,ioos:station:wmo:42865:1,2021-02-02T06:35:00Z,28.4662,-88.2943,16.2,21.3,11111222
BP,ioos:station:wmo:42865:1,2021-02-02T06:45:00Z,28.4662,-88.2943,16.1,21.3,11111222
BP,ioos:station:wmo:42865:1,2021-02-02T06:55:00Z,28.4662,-88.2943,16.0,21.3,11111222
BP,ioos:station:wmo:42865:1,2021-02-02T07:05:00Z,28.4662,-88.2943,16.1,21.3,11111222
BP,ioos:station:wmo:42865:1,2021-02-02T07:15:00Z,28.4662,-88.2943,16.0,21.3,11111222
BP,ioos:station:wmo:42865:1,2021-02-02T07:25:00Z,28.4662,-88.2943,16.0,21.3,11111222
BP,ioos:station:wmo:42865:1,2021-02-02T07:35:00Z,28.4662,-88.2943,16.2,21.3,11111222
BP,ioos:station:wmo:42865:1,2021-02-02T07:45:00Z,28.4662,-88.2943,16.2,21.3,11111222
BP,ioos:station:wmo:42865:1,2021-02-02T07:55:00Z,28.4662,-88.2943,16.2,21.3,11111222
BP,ioos:station:wmo:42865:1,2021-02-02T08:05:00Z,28.4662,-88.2943,16.2,21.3,11111222
BP,ioos:station:wmo:42865:1,2021-02-02T08:15:00Z,28.4662,-88.2943,16.2,21.3,11111222
BP,ioos:station:wmo:42865:1,2021-02-02T08:25:00Z,28.4662,-88.2943,16.4,21.3,11111222
BP,ioos:station:wmo:42865:1,2021-02-02T08:35:00Z,28.4662,-88.2943,16.4,21.3,11111222
BP,ioos:station:wmo:42865:1,2021-02-02T08:45:00Z,28.4662,-88.2943,16.4,21.3,11111222
BP,ioos:station:wmo:42865:1,2021-02-02T08:55:00Z,28.4662,-88.2943,16.2,21.3,11111222
BP,ioos:station:wmo:42865:1,2021-02-02T09:05:00Z,28.4662,-88.2943,16.3,21.3,11111222
BP,ioos:station:wmo:42865:1,2021-02-02T09:15:00Z,28.4662,-88.2943,16.3,21.3,11111222
BP,ioos:station:wmo:42865:1,2021-02-02T09:25:00Z,28.4662,-88.2943,16.3,21.3,11111222
BP,ioos:station:wmo:42865:1,2021-02-02T09:35:00Z,28.4662,-88.2943,16.4,21.3,11111222
BP,ioos:station:wmo:42865:1,2021-02-02T09:45:00Z,28.4662,-88.2943,16.4,21.3,11111222
BP,ioos:station:wmo:42865:1,2021-02-02T09:55:00Z,28.4662,-88.2943,16.3,21.3,11111222
BP,ioos:station:wmo:42865:1,2021-02-02T10:05:00Z,28.4662,-88.2943,16.3,21.3,11111222
BP,ioos:station:wmo:42865:1,2021-02-02T10:15:00Z,28.4662,-88.2943,16.4,21.3,11111222
BP,ioos:station:wmo:42865:1,2021-02-02T10:25:00Z,28.4662,-88.2943,16.4,21.3,11111222
BP,ioos:station:wmo:42865:1,2021-02-02T10:35:00Z,28.4662,-88.2943,16.5,21.3,11111222
BP,ioos:station:wmo:42865:1,2021-02-02T10:45:00Z,28.4662,-88.2943,16.5,21.3,11111222
BP,ioos:station:wmo:42865:1,2021-02-02T10:55:00Z,28.4662,-88.2943,16.5,21.3,11111222
BP,ioos:station:wmo:42865:1,2021-02-02T11:05:00Z,28.4662,-88.2943,16.5,21.3,11111222
BP,ioos:station:wmo:42865:1,2021-02-02T11:15:00Z,28.4662,-88.2943,16.4,21.3,11111222
BP,ioos:station:wmo:42865:1,2021-02-02T11:25:00Z,28.4662,-88.2943,16.4,21.3,11111222
BP,ioos:station:wmo:42865:1,2021-02-02T11:35:00Z,28.4662,-88.2943,16.4,21.3,11111222
BP,ioos:station:wmo:42865:1,2021-02-02T11:45:00Z,28.4662,-88.2943,16.4,21.3,11111222
BP,ioos:station:wmo:42865:1,2021-02-02T11:55:00Z,28.4662,-88.2943,16.4,21.3,11111222
BP,ioos:station:wmo:42865:1,2021-02-02T12:05:00Z,28.4662,-88.2943,16.5,21.3,11111222
BP,ioos:station:wmo:42865:1,2021-02-02T12:15:00Z,28.4662,-88.2943,16.4,21.3,11111222
BP,ioos:station:wmo:42865:1,2021-02-02T12:25:00Z,28.4662,-88.2943,16.5,21.3,11111222
BP,ioos:station:wmo:42865:1,2021-02-02T12:35:00Z,28.4662,-88.2943,16.4,21.3,11111222
BP,ioos:station:wmo:42865:1,2021-02-02T12:45:00Z,28.4662,-88.2943,16.5,21.3,11111222
BP,ioos:station:wmo:42865:1,2021-02-02T12:55:00Z,28.4662,-88.2943,16.5,21.3,11111222
BP,ioos:station:wmo:42865:1,2021-02-02T13:05:00Z,28.4662,-88.2943,16.5,21.3,11111222
BP,ioos:station:wmo:42865:1,2021-02-02T13:15:00Z,28.4662,-88.2943,16.4,21.3,11111222
BP,ioos:station:wmo:42865:1,2021-02-02T13:25:00Z,28.4662,-88.2943,16.5,21.3,11111222
BP,ioos:station:wmo:42865:1,2021-02-02T13:36:00Z,28.4662,-88.2943,16.5,21.3,11111222
BP,ioos:station:wmo:42865:1,2021-02-02T13:46:00Z,28.4662,-88.2943,16.5,21.3,11111222
BP,ioos:station:wmo:42865:1,2021-02-02T13:56:00Z,28.4662,-88.2943,16.4,21.3,11111222
BP,ioos:station:wmo:42865:1,2021-02-02T14:06:00Z,28.4662,-88.2943,16.4,21.3,11111222
BP,ioos:station:wmo:42865:1,2021-02-02T14:16:00Z,28.4662,-88.2943,16.4,21.3,11111222
BP,ioos:station:wmo:42865:1,2021-02-02T14:26:00Z,28.4662,-88.2943,16.4,21.3,11111222
BP,ioos:station:wmo:42865:1,2021-02-02T14:36:00Z,28.4662,-88.2943,16.4,21.3,11111222
BP,ioos:station:wmo:42865:1,2021-02-02T14:46:00Z,28.4662,-88.2943,16.5,21.3,11111222
BP,ioos:station:wmo:42865:1,2021-02-02T14:56:00Z,28.4662,-88.2943,16.5,21.3,11111222
BP,ioos:station:wmo:42865:1,2021-02-02T15:06:00Z,28.4662,-88.2943,16.5,21.3,11111222
BP,ioos:station:wmo:42865:1,2021-02-02T15:16:00Z,28.4662,-88.2943,16.5,21.3,11111222
BP,ioos:station:wmo:42865:1,2021-02-02T15:26:00Z,28.4662,-88.2943,16.5,21.3,11111222
BP,ioos:station:wmo:42865:1,2021-02-02T15:36:00Z,28.4662,-88.2943,16.4,21.3,11111222
BP,ioos:station:wmo:42865:1,2021-02-02T15:46:00Z,28.4662,-88.2943,16.4,21.3,11111222
BP,ioos:station:wmo:42865:1,2021-02-02T15:56:00Z,28.4662,-88.2943,16.5,21.3,11111222
BP,ioos:station:wmo:42865:1,2021-02-02T16:06:00Z,28.4662,-88.2943,16.3,21.3,11111222
BP,ioos:station:wmo:42865:1,2021-02-02T16:16:00Z,28.4662,-88.2943,16.3,21.3,11111222
BP,ioos:station:wmo:42865:1,2021-02-02T16:26:00Z,28.4662,-88.2943,16.1,21.3,11111222
BP,ioos:station:wmo:42865:1,2021-02-02T16:36:00Z,28.4662,-88.2943,16.3,21.3,11111222
BP,ioos:station:wmo:42865:1,2021-02-02T16:46:00Z,28.4662,-88.2943,16.2,21.3,11111222
BP,ioos:station:wmo:42865:1,2021-02-02T16:56:00Z,28.4662,-88.2943,16.4,21.3,11111222
BP,ioos:station:wmo:42865:1,2021-02-02T17:06:00Z,28.4662,-88.2943,16.4,21.3,11111222
BP,ioos:station:wmo:42865:1,2021-02-02T17:16:00Z,28.4662,-88.2943,16.3,21.3,11111222
BP,ioos:station:wmo:42865:1,2021-02-02T17:26:00Z,28.4662,-88.2943,16.3,21.3,11111222
BP,ioos:station:wmo:42865:1,2021-02-02T17:36:00Z,28.4662,-88.2943,16.4,21.3,11111222
BP,ioos:station:wmo:42865:1,2021-02-02T17:46:00Z,28.4662,-88.2943,16.4,21.3,11111222
BP,ioos:station:wmo:42865:1,2021-02-02T17:56:00Z,28.4662,-88.2943,16.4,21.3,11111222
BP,ioos:station:wmo:42865:1,2021-02-02T18:06:00Z,28.4662,-88.2943,16.5,21.3,11111222
BP,ioos:station:wmo:42865:1,2021-02-02T18:16:00Z,28.4662,-88.2943,16.3,21.3,11111222
BP,ioos:station:wmo:42865:1,2021-02-02T18:26:00Z,28.4662,-88.2943,16.3,21.3,11111222
BP,ioos:station:wmo:42865:1,2021-02-02T18:36:00Z,28.4662,-88.2943,16.4,21.3,11111222
BP,ioos:station:wmo:42865:1,2021-02-02T18:46:00Z,28.4662,-88.2943,16.4,21.3,11111222
BP,ioos:station:wmo:42865:1,2021-02-02T18:56:00Z,28.4662,-88.2943,16.4,21.3,11111222
BP,ioos:station:wmo:42865:1,2021-02-02T19:06:00Z,28.4662,-88.2943,16.5,21.3,11111222
BP,ioos:station:wmo:42865:1,2021-02-02T19:16:00Z,28.4662,-88.2943,16.4,21.3,11111222
BP,ioos:station:wmo:42865:1,2021-02-02T19:26:00Z,28.4662,-88.2943,16.5,21.3,11111222
BP,ioos:station:wmo:42865:1,2021-02-02T19:36:00Z,28.4662,-88.2943,16.5,21.3,11111222
BP,ioos:station:wmo:42865:1,2021-02-02T19:46:00Z,28.4662,-88.2943,16.2,21.3,11111222
BP,ioos:station:wmo:42865:1,2021-02-02T19:56:00Z,28.4662,-88.2943,16.2,21.3,11111222
BP,ioos:station:wmo:42865:1,2021-02-02T20:06:00Z,28.4662,-88.2943,16.5,21.3,11111222
BP,ioos:station:wmo:42865:1,2021-02-02T20:16:00Z,28.4662,-88.2943,16.5,21.3,11111222
BP,ioos:station:wmo:42865:1,2021-02-02T20:26:00Z,28.4662,-88.2943,16.5,21.3,11111222
BP,ioos:station:wmo:42865:1,2021-02-02T20:36:00Z,28.4662,-88.2943,16.5,21.3,11111222
BP,ioos:station:wmo:42865:1,2021-02-02T20:46:00Z,28.4662,-88.2943,16.4,21.3,11111222
BP,ioos:station:wmo:42865:1,2021-02-02T20:56:00Z,28.4662,-88.2943,16.3,21.3,11111222
BP,ioos:station:wmo:42865:1,2021-02-02T21:06:00Z,28.4662,-88.2943,16.3,21.3,11111222
BP,ioos:station:wmo:42865:1,2021-02-02T21:16:00Z,28.4662,-88.2943,16.3,21.3,11111222
BP,ioos:station:wmo:42865:1,2021-02-02T21:26:00Z,28.4662,-88.2943,16.3,21.3,11111222
BP,ioos:station:wmo:42865:1,2021-02-02T21:36:00Z,28.4662,-88.2943,16.2,21.3,11111222
BP,ioos:station:wmo:42865:1,2021-02-02T21:46:00Z,28.4662,-88.2943,16.3,21.3,11111222
BP,ioos:station:wmo:42865:1,2021-02-02T21:56:00Z,28.4662,-88.2943,16.4,21.3,11111222
BP,ioos:station:wmo:42865:1,2021-02-02T22:06:00Z,28.4662,-88.2943,16.4,21.3,11111222
BP,ioos:station:wmo:42865:1,2021-02-02T22:16:00Z,28.4662,-88.2943,16.3,21.3,11111222